Torna al catalogo

STARLINK-35767

AttivoComunicazioniVLEO
NORAD 67058·PAYLOAD·🇺🇸 United States

Lanciato Dec 11, 2025 da Cape Canaveral Space Force Station

Loading…

Prossimi Passaggi (prossime 24 ore)

TLE

AggiornatoSource: CelesTrak SupGP

Epoca: Sep 15, 2026, 03:16 UTC

1 67058C 25294AE  26258.13659722 -.00026149  00000+0 -94704-3 0  2584
2 67058  43.0016  48.4514 0001757 267.5553 301.3256 15.27594064    15

Traccia STARLINK-35767 in tempo reale con AllMySat

Download on the App Store